Regional Weather Roundup
Issued by NWS

Home | Current Version | Previous Version | Text Only | Print | Product List | Glossary Off
Versions: 1 2 3 4 5 6 7 8 9 10 11 12 13 14 15 16 17 18 19 20 21 22 23 24 25 26 27 28 29 30 31 32 33 34 35 36 37 38 39 40 41 42 43 44 45 46 47 48 49 50

726
ASUS43 KFSD 242210
RWRSD

WEATHER ROUNDUP FOR SOUTH DAKOTA
NATIONAL WEATHER SERVICE SIOUX FALLS SD
400 PM CST FRI FEB 24 2017

NOTE: "FAIR" INDICATES FEW OR NO CLOUDS BELOW 12,000 FEET WITH NO
SIGNIFICANT WEATHER AND/OR OBSTRUCTIONS TO VISIBILITY.


SDZ001>005-009-010-012>017-242300-
NORTHWEST AND NORTH CENTRAL SOUTH DAKOTA

CITY           SKY/WX    TMP DP  RH WIND       PRES   REMARKS
BUFFALO          N/A     29  12  49 S3        29.98F
FAITH            N/A     28  13  53 VRB5      30.08R WCI  23
MOBRIDGE       SUNNY     32  12  43 N12G20    30.08R WCI  23
$$

SDZ012>016-024>037-041>051-057-063-072>074-242300-
SOUTHWEST AND SOUTH CENTRAL SOUTH DAKOTA

CITY           SKY/WX    TMP DP  RH WIND       PRES   REMARKS
RAPID CTY ARPT CLOUDY    22  15  75 S7        30.05S WCI  13
PIERRE         CLOUDY    30  14  51 NW18      30.09R WCI  18
CUSTER         LGT SNOW  21  14  74 W10       29.91S WCI  10
ELLSWORTH AFB  CLOUDY    23  16  74 S7        30.04R WCI  15
PHILIP         SUNNY     32  11  41 NW12      30.09S WCI  23
PINE RIDGE     PTSUNNY   23  16  74 W7        30.07R WCI  15
SPEARFISH      MIX PCPN  23  19  86 NE3       30.01R
WINNER         CLOUDY    29  17  61 NW21      30.07R WCI  16
$$

SDZ004>011-016>023-039-040-242300-
NORTHEAST SOUTH DAKOTA

CITY           SKY/WX    TMP DP  RH WIND       PRES   REMARKS
ABERDEEN       SUNNY     29  13  51 N24G30    30.06R WCI  15
WATERTOWN      CLOUDY    25  14  63 N21G31    29.96R WCI  11
BROOKINGS      PTSUNNY   26  15  63 N24G32    29.93R WCI  11
SISSETON         N/A     25  17  72 N25G31    30.02R WCI   9
$$

SDZ017-020-022-023-036>040-048>070-242300-
SOUTHEAST SOUTH DAKOTA

CITY           SKY/WX    TMP DP  RH WIND       PRES   REMARKS
SIOUX FALLS    CLOUDY    28  17  63 N29G35    29.93R WCI  12
HURON          MOSUNNY   32  17  54 N23G30    30.02R WCI  19
CHAMBERLAIN    CLOUDY    33  19  54 NW16G22   30.05S WCI  23
MITCHELL       CLOUDY    33  17  51 N25       30.02R WCI  20
YANKTON        MOSUNNY   28  16  59 NW20      29.97R WCI  15
$$

ABBREVIATIONS USED IN REMARKS
   TC - TEMPERATURE IN CELSIUS
  WCI - WIND CHILL INDEX
   HX - HEAT INDEX
  VSB - VISIBILITY





USA.gov is the U.S. government's official web portal to all federal, state and local government web resources and services.